铱星星座 158星 (IRIDIUM 158)

导读

IRIDIUM 158是美国于2018年7月25日发射的铱星系统新一代通信卫星,隶属于铱星星座,运行在近地圆形轨道,轨道倾角约86°。作为全球卫星通信网络的组成部分,它可为偏远地区提供稳定语音通信和数据服务,弥补地面网络覆盖盲区,支撑全球无缝漫游的卫星通信服务,保障各类移动场景下的可靠通信连接。

基本信息
目录编号:
43571
目录名称:
IRIDIUM 158
国际标识:
2018-061C
轨道中心:
EARTH
卫星名称:
铱星星座 158星
卫星全名:
铱星星座 158星 (IRIDIUM 158)
卫星状态:
在轨 (已飞行2970 天)
发射日期:
2018-07-25 UTC
国别 :
美国 (US)
星等 :
--
轨道信息
数据来源 国际轨道数据 AOE轨道数据
星历时间 2026-09-10T17:08:30+0800
17小时前
查看轨道信息
2026-09-06T06:00:00+0800
5天前
查看轨道信息
半长轴 7155.805km 7155.809km
偏心率 0.0002228 0.0002185
轨道倾角 86.400° 86.400°
近地点辐角 92.982° 91.227°
升交点赤经 21.124° 22.989°
平近点角 267.163° 273.799°
近地点 776.073km 776.108km
远地点 779.263km 779.236km
周期 100.403分钟 100.403分钟
每日圈数 14.342176 14.342164
详细信息
平衡模式:
三轴稳定
覆盖范围:
全球
运营商:
铱星通信公司
运营商所在国:
美国
制造商(研发单位):
阿莱尼亚宇航公司
制造商所在国:
意大利
使用方式:
暂无
卫星简介
铱星(Iridium)是由共66个运作中的通信卫星组成的卫星通信系统。这个系统原本规划77个通信卫星,所以用原子序数为77的铱元素来命名。铱卫星允许人们使用手持型电子设备进行全球性的语音及数据通讯。该卫星仍在工作。
2D轨道图
3D轨道图
轨道高度分析图
轨道倾角分析图
轨道综合分析图
查看轨道综合分析图
与全量物体交会距离演化趋势
与全量物体交会风险概率演化趋势